EN

Hourly Weather Dziewiate

Today, 28 October, Wednesday

Time Temperature Precipitation Wind Pressure Humidity
00:00 +8°C° 0 mm 2 mps 750 mmHg 83%
01:00 +7°C° 0 mm 2 mps 750 mmHg 83%
02:00 +7°C° 0 mm 3 mps 750 mmHg 84%
03:00 +7°C° 0 mm 3 mps 750 mmHg 84%
04:00 +7°C° 0 mm 3 mps 750 mmHg 85%
05:00 +7°C° 0 mm 3 mps 750 mmHg 85%
06:00 +5°C° 0 mm 3 mps 750 mmHg 85%
07:00 +5°C° 0 mm 4 mps 750 mmHg 85%
08:00 +7°C° 0 mm 4 mps 750 mmHg 77%
09:00 +9°C° 0 mm 5 mps 750 mmHg 70%
10:00 +12°C° 0 mm 5 mps 750 mmHg 62%
11:00 +13°C° 0 mm 5 mps 750 mmHg 58%
12:00 +13°C° 0 mm 5 mps 750 mmHg 54%
13:00 +14°C° 0 mm 5 mps 750 mmHg 50%
14:00 +13°C° 0 mm 4 mps 750 mmHg 54%
15:00 +12°C° 0 mm 4 mps 750 mmHg 57%
16:00 +12°C° 0 mm 4 mps 750 mmHg 60%
17:00 +11°C° 0 mm 4 mps 750 mmHg 64%
18:00 +11°C° 0 mm 4 mps 751 mmHg 69%
19:00 +10°C° 0 mm 4 mps 751 mmHg 73%
20:00 +10°C° 0 mm 4 mps 751 mmHg 75%
21:00 +8°C° 0 mm 4 mps 751 mmHg 78%
22:00 +8°C° 0 mm 4 mps 751 mmHg 80%
23:00 +8°C° 0 mm 4 mps 752 mmHg 79%

Tomorrow, 29 October, Thursday

Time Temperature Precipitation Wind Pressure Humidity
00:00 +10°C° 0 mm 4 mps 752 mmHg 79%
01:00 +10°C° 0 mm 4 mps 752 mmHg 78%
02:00 +8°C° 0 mm 4 mps 752 mmHg 79%
03:00 +8°C° 0 mm 4 mps 751 mmHg 79%
04:00 +8°C° 0 mm 4 mps 751 mmHg 80%
05:00 +8°C° 0 mm 4 mps 751 mmHg 80%
06:00 +7°C° 0 mm 4 mps 751 mmHg 80%
07:00 +7°C° 0 mm 4 mps 751 mmHg 80%
08:00 +8°C° 0 mm 4 mps 751 mmHg 77%
09:00 +9°C° 0 mm 5 mps 751 mmHg 74%
10:00 +12°C° 0 mm 5 mps 751 mmHg 71%
11:00 +10°C° 0.2 mm 5 mps 751 mmHg 74%
12:00 +10°C° 0.2 mm 5 mps 751 mmHg 77%
13:00 +10°C° 0.2 mm 5 mps 750 mmHg 81%
14:00 +9°C° 0.6 mm 5 mps 751 mmHg 81%
15:00 +9°C° 0.6 mm 5 mps 751 mmHg 80%
16:00 +10°C° 0.6 mm 4 mps 751 mmHg 80%
17:00 +8°C° 0.1 mm 4 mps 752 mmHg 80%
18:00 +8°C° 0.1 mm 4 mps 753 mmHg 81%
19:00 +7°C° 0.1 mm 5 mps 753 mmHg 81%
20:00 +6°C° 0 mm 5 mps 754 mmHg 83%
21:00 +6°C° 0 mm 4 mps 754 mmHg 84%
22:00 +6°C° 0 mm 4 mps 755 mmHg 85%
23:00 +5°C° 0 mm 4 mps 755 mmHg 86%

Day after tomorrow, 30 October, Friday

Time Temperature Precipitation Wind Pressure Humidity
00:00 +5°C° 0 mm 4 mps 755 mmHg 86%
01:00 +5°C° 0 mm 4 mps 755 mmHg 87%
02:00 +5°C° 0 mm 4 mps 756 mmHg 88%
03:00 +4°C° 0 mm 3 mps 756 mmHg 89%
04:00 +4°C° 0 mm 3 mps 756 mmHg 90%
05:00 +4°C° 0 mm 3 mps 756 mmHg 89%
06:00 +4°C° 0 mm 3 mps 755 mmHg 89%
07:00 +4°C° 0 mm 3 mps 755 mmHg 88%
08:00 +5°C° 0.2 mm 3 mps 755 mmHg 88%
09:00 +7°C° 0.2 mm 3 mps 754 mmHg 88%
10:00 +6°C° 0.2 mm 4 mps 754 mmHg 87%
11:00 +7°C° 1.6 mm 4 mps 753 mmHg 90%
12:00 +7°C° 1.6 mm 4 mps 753 mmHg 93%
13:00 +7°C° 1.6 mm 4 mps 753 mmHg 95%
14:00 +8°C° 1.2 mm 5 mps 752 mmHg 95%
15:00 +9°C° 1.2 mm 6 mps 752 mmHg 95%
16:00 +10°C° 1.2 mm 6 mps 752 mmHg 94%
17:00 +10°C° 1.3 mm 6 mps 752 mmHg 94%
18:00 +10°C° 1.3 mm 7 mps 752 mmHg 94%
19:00 +11°C° 1.3 mm 7 mps 752 mmHg 94%
20:00 +11°C° 0.8 mm 7 mps 752 mmHg 94%
21:00 +11°C° 0.8 mm 6 mps 753 mmHg 94%
22:00 +11°C° 0.8 mm 6 mps 753 mmHg 94%
23:00 +12°C° 0.6 mm 5 mps 754 mmHg 95%

31 October, Saturday

Time Temperature Precipitation Wind Pressure Humidity
00:00 +11°C° 0.6 mm 4 mps 754 mmHg 95%
01:00 +11°C° 0.6 mm 4 mps 754 mmHg 96%
02:00 +10°C° 0.4 mm 3 mps 755 mmHg 95%
03:00 +10°C° 0.4 mm 3 mps 755 mmHg 95%
04:00 +9°C° 0.4 mm 2 mps 756 mmHg 94%
05:00 +9°C° 0.2 mm 3 mps 756 mmHg 93%
06:00 +9°C° 0.2 mm 3 mps 757 mmHg 92%
07:00 +8°C° 0.2 mm 3 mps 757 mmHg 91%
08:00 +8°C° 0 mm 3 mps 758 mmHg 89%
09:00 +9°C° 0 mm 3 mps 758 mmHg 86%
10:00 +9°C° 0 mm 3 mps 759 mmHg 84%
11:00 +10°C° 0 mm 3 mps 759 mmHg 80%
12:00 +11°C° 0 mm 3 mps 759 mmHg 75%
13:00 +12°C° 0 mm 3 mps 759 mmHg 71%
14:00 +11°C° 0 mm 3 mps 759 mmHg 73%
15:00 +11°C° 0 mm 3 mps 759 mmHg 76%
16:00 +10°C° 0 mm 2 mps 759 mmHg 78%
17:00 +10°C° 0 mm 3 mps 759 mmHg 79%
18:00 +9°C° 0 mm 3 mps 759 mmHg 81%
19:00 +8°C° 0 mm 3 mps 760 mmHg 82%
20:00 +8°C° 0 mm 3 mps 759 mmHg 81%
21:00 +8°C° 0 mm 3 mps 759 mmHg 80%
22:00 +6°C° 0 mm 4 mps 759 mmHg 80%
23:00 +6°C° 0 mm 4 mps 759 mmHg 80%

1 November, Sunday

Time Temperature Precipitation Wind Pressure Humidity
00:00 +6°C° 0 mm 4 mps 759 mmHg 81%
01:00 +6°C° 0 mm 4 mps 759 mmHg 81%
02:00 +5°C° 0 mm 4 mps 759 mmHg 81%
03:00 +5°C° 0 mm 5 mps 759 mmHg 80%
04:00 +5°C° 0 mm 5 mps 758 mmHg 80%
05:00 +5°C° 0 mm 5 mps 758 mmHg 80%
06:00 +5°C° 0 mm 5 mps 758 mmHg 80%
07:00 +5°C° 0 mm 5 mps 758 mmHg 80%
08:00 +6°C° 0 mm 5 mps 758 mmHg 75%
09:00 +7°C° 0 mm 5 mps 758 mmHg 70%
10:00 +9°C° 0 mm 5 mps 758 mmHg 65%
11:00 +10°C° 0 mm 5 mps 757 mmHg 65%
12:00 +12°C° 0 mm 5 mps 757 mmHg 64%
13:00 +13°C° 0 mm 5 mps 757 mmHg 63%
14:00 +13°C° 0 mm 5 mps 757 mmHg 67%
15:00 +12°C° 0 mm 4 mps 756 mmHg 70%
16:00 +12°C° 0 mm 4 mps 756 mmHg 74%
17:00 +11°C° 0 mm 4 mps 756 mmHg 75%
18:00 +10°C° 0 mm 4 mps 756 mmHg 77%
19:00 +10°C° 0 mm 4 mps 756 mmHg 79%
20:00 +10°C° 0 mm 4 mps 756 mmHg 79%
21:00 +8°C° 0 mm 4 mps 756 mmHg 80%
22:00 +8°C° 0 mm 4 mps 756 mmHg 80%
23:00 +8°C° 0 mm 4 mps 756 mmHg 80%

2 November, Monday

Time Temperature Precipitation Wind Pressure Humidity
00:00 +8°C° 0 mm 4 mps 756 mmHg 79%
01:00 +8°C° 0 mm 4 mps 756 mmHg 79%
02:00 +8°C° 0 mm 4 mps 756 mmHg 79%
03:00 +8°C° 0 mm 4 mps 756 mmHg 79%
04:00 +9°C° 0 mm 3 mps 756 mmHg 79%
05:00 +9°C° 0 mm 3 mps 756 mmHg 79%
06:00 +9°C° 0 mm 3 mps 756 mmHg 79%
07:00 +10°C° 0 mm 3 mps 756 mmHg 78%
08:00 +11°C° 0 mm 4 mps 756 mmHg 76%
09:00 +12°C° 0 mm 4 mps 756 mmHg 74%
10:00 +13°C° 0 mm 4 mps 756 mmHg 71%
11:00 +13°C° 0 mm 4 mps 756 mmHg 70%
12:00 +14°C° 0 mm 4 mps 756 mmHg 68%
13:00 +15°C° 0 mm 4 mps 756 mmHg 66%
14:00 +14°C° 0 mm 4 mps 756 mmHg 69%
15:00 +14°C° 0 mm 3 mps 756 mmHg 71%
16:00 +13°C° 0 mm 3 mps 756 mmHg 74%
17:00 +13°C° 0 mm 3 mps 756 mmHg 73%
18:00 +12°C° 0 mm 3 mps 756 mmHg 73%
19:00 +12°C° 0 mm 3 mps 756 mmHg 73%
20:00 +12°C° 0 mm 3 mps 756 mmHg 73%
21:00 +12°C° 0 mm 3 mps 757 mmHg 74%
22:00 +11°C° 0 mm 3 mps 757 mmHg 74%
23:00 +11°C° 0 mm 3 mps 757 mmHg 75%
Show more